Flag for Canada Weather past 2 weeks in Lloydminster, Alberta, Canada

Now
55 °F

Overcast.


Feels Like: 53 °F
Forecast: 51 / 67 °F
Wind: 8 mph from South

Location: Lloydminister

Current Time: Jul 24, 2014 at 10:26:35 PM

Latest Report: Jul 24, 2014 at 10:00 PM


Visibility: 9 mi

Pressure: 29.58 "Hg

Humidity: 82%

Dew point: 50 °F

Location of LloydminsterLocation

Historic Weather in Lloydminster — Graph

°F

Lloydminster temperature yesterday

Maximum temperature yesterday: 73 °F (at 11:00 AM)
Minimum temperature yesterday: 61 °F (at 6:00 AM)
Average temperature yesterday: 67 °F

Past Weeks' High & Low Weather Summary

 TemperatureHumidityPressure
High81 °F (Jul 16, 2:00 PM)100% (Jul 17, 6:00 AM)30.38 "Hg (Jul 17, 6:00 AM)
Low48 °F (Jul 13, 2:00 AM)31% (Jul 13, 4:00 PM)29.55 "Hg (Jul 19, 10:00 AM)
Average62 °F73%29.95 "Hg
* Reported Jul 9 9:00 PM — Jul 24 9:00 PM, Lloydminster, Weather by CustomWeather, © 2014

Note: Actual official high and low records may vary slightly from our data, if they occured in-between our weather recording intervals... More about our weather records

Advertising

Lloydminster weather history for previous 24 hours

 ConditionsComfort  
Time TempWeatherWind HumidityBarometerVisibility
9:00 PM
Jul 24
55 °FMore clouds than sun.10 mph82%29.59 "Hg15 mi
8:46 PM55 °FMore clouds than sun.12 mph82%29.61 "Hg15 mi
8:00 PM55 °FSprinkles. Overcast.3 mph88%29.61 "Hg15 mi
7:00 PM57 °FSprinkles. Overcast.15 mph82%29.67 "Hg10 mi
6:46 PM59 °FSprinkles. Overcast.21 mph77%29.66 "Hg10 mi
6:00 PM61 °FOvercast.13 mph83%29.67 "Hg15 mi
5:00 PM63 °FPartly sunny.6 mph77%29.64 "Hg15 mi
4:00 PM59 °FThunderstorms. Mostly cloudy.16 mph82%29.70 "Hg15 mi
3:04 PM70 °FThunderstorms. Mostly cloudy.23 mph50%29.68 "Hg15 mi
2:00 PM75 °FPartly sunny.12 mph61%29.66 "Hg15 mi
1:00 PM75 °FScattered clouds.15 mph54%29.66 "Hg15 mi
12:00 PM73 °FBroken clouds.16 mph61%29.68 "Hg15 mi
11:00 AM73 °FScattered clouds.14 mph61%29.68 "Hg15 mi
10:00 AM70 °FPartly sunny.15 mph73%29.69 "Hg15 mi
9:00 AM68 °FBroken clouds.15 mph83%29.71 "Hg8 mi
8:00 AM66 °FFog.12 mph88%29.74 "Hg5 mi
7:00 AM64 °FFog.10 mph94%29.74 "Hg5 mi
6:53 AM64 °FMostly cloudy.8 mph94%29.74 "Hg7 mi
6:00 AM64 °FMostly cloudy.10 mph88%29.75 "Hg9 mi
5:00 AM64 °FOvercast.17 mph88%29.79 "Hg9 mi
4:00 AM63 °FMostly cloudy.12 mph94%29.78 "Hg9 mi
3:00 AM63 °FClear.12 mph94%29.80 "Hg9 mi
2:00 AM63 °FPassing clouds.12 mph94%29.83 "Hg9 mi
1:00 AM64 °FPassing clouds.10 mph88%29.85 "Hg9 mi
12:00 AM64 °FPassing clouds.14 mph88%29.87 "Hg9 mi
11:00 PM
Jul 23
64 °FPassing clouds.15 mph88%29.89 "Hg9 mi
10:00 PM66 °FPartly sunny.15 mph88%29.90 "Hg9 mi
Weather by CustomWeather, © 2014

See weather overviewHow to use our weather pages